When you browse on this site, cookies collect data to enhance your experience and personalize the content and advertising you see.
Visit our Privacy Policy to learn more. By continuing to use the site, you agree to this use of cookies and data.
  • în România
  • Lista ţărilor
  • Pe 7 zile
  • Temperatura apei
  • Meteo pe hartă
  • Widget-uri
  • user-avatar
    Intrare

    Meteo pe oră la Potenza

    Astăzi, 14 Noiembrie, Joi

    Timp Temperatura Precipitaţii Vânt Presiune Umiditate
    00:00 +6°C° 0 mm 2 m/s 677 mmHg 89%
    01:00 +5°C° 0 mm 2 m/s 677 mmHg 91%
    02:00 +5°C° 0 mm 2 m/s 677 mmHg 90%
    03:00 +5°C° 0 mm 2 m/s 677 mmHg 90%
    04:00 +5°C° 0 mm 2 m/s 677 mmHg 89%
    05:00 +6°C° 0.3 mm 2 m/s 677 mmHg 88%
    06:00 +7°C° 0.3 mm 1 m/s 677 mmHg 88%
    07:00 +7°C° 0 mm 1 m/s 678 mmHg 87%
    08:00 +8°C° 0.5 mm 1 m/s 678 mmHg 87%
    09:00 +8°C° 0.5 mm 1 m/s 678 mmHg 87%
    10:00 +9°C° 0.5 mm 1 m/s 679 mmHg 86%
    11:00 +10°C° 0.2 mm 1 m/s 679 mmHg 81%
    12:00 +11°C° 0.2 mm 1 m/s 679 mmHg 76%
    13:00 +12°C° 0.2 mm 1 m/s 679 mmHg 70%
    14:00 +12°C° 0 mm 1 m/s 679 mmHg 72%
    15:00 +11°C° 0 mm 1 m/s 679 mmHg 74%
    16:00 +11°C° 0 mm 1 m/s 679 mmHg 75%
    17:00 +10°C° 0 mm 1 m/s 679 mmHg 79%
    18:00 +9°C° 0 mm 1 m/s 679 mmHg 83%
    19:00 +8°C° 0 mm 1 m/s 678 mmHg 86%
    20:00 +8°C° 0 mm 1 m/s 678 mmHg 86%
    21:00 +8°C° 0 mm 1 m/s 679 mmHg 86%
    22:00 +7°C° 0 mm 1 m/s 679 mmHg 86%
    23:00 +6°C° 0 mm 2 m/s 679 mmHg 85%

    Mâine, 15 Noiembrie, Vineri

    Timp Temperatura Precipitaţii Vânt Presiune Umiditate
    00:00 +6°C° 0 mm 2 m/s 678 mmHg 84%
    01:00 +6°C° 0 mm 2 m/s 678 mmHg 83%
    02:00 +6°C° 0 mm 2 m/s 678 mmHg 81%
    03:00 +6°C° 0 mm 2 m/s 678 mmHg 80%
    04:00 +6°C° 0 mm 2 m/s 678 mmHg 79%
    05:00 +6°C° 0 mm 2 m/s 678 mmHg 80%
    06:00 +6°C° 0 mm 2 m/s 679 mmHg 81%
    07:00 +6°C° 0 mm 2 m/s 679 mmHg 82%
    08:00 +8°C° 0 mm 2 m/s 679 mmHg 78%
    09:00 +9°C° 0 mm 2 m/s 680 mmHg 73%
    10:00 +12°C° 0 mm 2 m/s 681 mmHg 69%
    11:00 +12°C° 0 mm 3 m/s 681 mmHg 66%
    12:00 +12°C° 0 mm 3 m/s 681 mmHg 63%
    13:00 +13°C° 0 mm 4 m/s 681 mmHg 60%
    14:00 +12°C° 0 mm 3 m/s 680 mmHg 66%
    15:00 +11°C° 0 mm 3 m/s 680 mmHg 72%
    16:00 +11°C° 0 mm 3 m/s 680 mmHg 77%
    17:00 +10°C° 0 mm 3 m/s 680 mmHg 80%
    18:00 +9°C° 0 mm 3 m/s 680 mmHg 83%
    19:00 +8°C° 0 mm 3 m/s 680 mmHg 85%
    20:00 +8°C° 0 mm 3 m/s 680 mmHg 84%
    21:00 +8°C° 0 mm 3 m/s 680 mmHg 82%
    22:00 +8°C° 0 mm 3 m/s 681 mmHg 80%
    23:00 +8°C° 0 mm 3 m/s 681 mmHg 81%

    Poimâine, 16 Noiembrie, Sâmbătă

    Timp Temperatura Precipitaţii Vânt Presiune Umiditate
    00:00 +8°C° 0 mm 3 m/s 681 mmHg 82%
    01:00 +8°C° 0 mm 3 m/s 681 mmHg 82%
    02:00 +8°C° 0 mm 2 m/s 681 mmHg 83%
    03:00 +8°C° 0 mm 2 m/s 681 mmHg 83%
    04:00 +8°C° 0 mm 2 m/s 681 mmHg 83%
    05:00 +8°C° 0 mm 2 m/s 681 mmHg 82%
    06:00 +8°C° 0 mm 2 m/s 681 mmHg 81%
    07:00 +8°C° 0 mm 2 m/s 682 mmHg 80%
    08:00 +10°C° 0 mm 2 m/s 682 mmHg 73%
    09:00 +12°C° 0 mm 2 m/s 682 mmHg 67%
    10:00 +14°C° 0 mm 2 m/s 683 mmHg 60%
    11:00 +15°C° 0 mm 2 m/s 683 mmHg 57%
    12:00 +15°C° 0 mm 2 m/s 682 mmHg 53%
    13:00 +16°C° 0 mm 3 m/s 682 mmHg 49%
    14:00 +14°C° 0 mm 3 m/s 682 mmHg 55%
    15:00 +14°C° 0 mm 2 m/s 681 mmHg 61%
    16:00 +13°C° 0 mm 2 m/s 681 mmHg 67%
    17:00 +11°C° 0 mm 3 m/s 680 mmHg 73%
    18:00 +10°C° 0 mm 3 m/s 680 mmHg 79%
    19:00 +9°C° 0 mm 3 m/s 680 mmHg 85%
    20:00 +9°C° 0 mm 3 m/s 680 mmHg 87%
    21:00 +8°C° 0 mm 4 m/s 679 mmHg 89%
    22:00 +8°C° 0 mm 4 m/s 679 mmHg 91%
    23:00 +8°C° 0 mm 4 m/s 679 mmHg 91%

    17 Noiembrie, Duminică

    Timp Temperatura Precipitaţii Vânt Presiune Umiditate
    00:00 +8°C° 0 mm 4 m/s 678 mmHg 92%
    01:00 +8°C° 0 mm 4 m/s 678 mmHg 92%
    02:00 +8°C° 0 mm 4 m/s 678 mmHg 92%
    03:00 +8°C° 0 mm 4 m/s 677 mmHg 92%
    04:00 +8°C° 0 mm 4 m/s 677 mmHg 93%
    05:00 +7°C° 0 mm 4 m/s 677 mmHg 92%
    06:00 +7°C° 0 mm 4 m/s 677 mmHg 91%
    07:00 +7°C° 0 mm 4 m/s 677 mmHg 90%
    08:00 +8°C° 0.2 mm 4 m/s 677 mmHg 85%
    09:00 +10°C° 0.2 mm 5 m/s 678 mmHg 79%
    10:00 +11°C° 0.2 mm 6 m/s 679 mmHg 73%
    11:00 +12°C° 2.7 mm 5 m/s 679 mmHg 75%
    12:00 +10°C° 2.7 mm 5 m/s 679 mmHg 78%
    13:00 +10°C° 2.7 mm 4 m/s 678 mmHg 80%
    14:00 +10°C° 0.6 mm 4 m/s 678 mmHg 78%
    15:00 +10°C° 0.6 mm 4 m/s 678 mmHg 76%
    16:00 +9°C° 0.6 mm 3 m/s 678 mmHg 74%
    17:00 +8°C° 0 mm 3 m/s 678 mmHg 76%
    18:00 +8°C° 0 mm 3 m/s 678 mmHg 79%
    19:00 +7°C° 0 mm 3 m/s 678 mmHg 81%
    20:00 +7°C° 0 mm 3 m/s 678 mmHg 83%
    21:00 +5°C° 0 mm 3 m/s 678 mmHg 86%
    22:00 +5°C° 0 mm 3 m/s 678 mmHg 88%
    23:00 +5°C° 0 mm 3 m/s 679 mmHg 89%

    18 Noiembrie, Luni

    Timp Temperatura Precipitaţii Vânt Presiune Umiditate
    00:00 +4°C° 0 mm 3 m/s 679 mmHg 89%
    01:00 +5°C° 0 mm 2 m/s 679 mmHg 90%
    02:00 +5°C° 0 mm 2 m/s 680 mmHg 90%
    03:00 +5°C° 0 mm 2 m/s 680 mmHg 90%
    04:00 +5°C° 0 mm 2 m/s 680 mmHg 91%
    05:00 +5°C° 0 mm 2 m/s 680 mmHg 91%
    06:00 +5°C° 0 mm 2 m/s 681 mmHg 92%
    07:00 +5°C° 0 mm 2 m/s 681 mmHg 92%
    08:00 +6°C° 0.1 mm 2 m/s 681 mmHg 86%
    09:00 +8°C° 0.1 mm 3 m/s 682 mmHg 80%
    10:00 +9°C° 0.1 mm 3 m/s 683 mmHg 74%
    11:00 +9°C° 0.1 mm 3 m/s 683 mmHg 73%
    12:00 +10°C° 0.1 mm 3 m/s 683 mmHg 72%
    13:00 +10°C° 0.1 mm 3 m/s 683 mmHg 71%
    14:00 +10°C° 0.1 mm 3 m/s 683 mmHg 75%
    15:00 +9°C° 0.1 mm 2 m/s 682 mmHg 78%
    16:00 +9°C° 0.1 mm 2 m/s 682 mmHg 82%
    17:00 +8°C° 0 mm 2 m/s 682 mmHg 84%
    18:00 +7°C° 0 mm 2 m/s 682 mmHg 87%
    19:00 +6°C° 0 mm 2 m/s 682 mmHg 90%
    20:00 +6°C° 0 mm 2 m/s 682 mmHg 89%
    21:00 +5°C° 0 mm 2 m/s 682 mmHg 88%
    22:00 +5°C° 0 mm 2 m/s 682 mmHg 87%
    23:00 +5°C° 0 mm 2 m/s 682 mmHg 87%

    19 Noiembrie, Marţi

    Timp Temperatura Precipitaţii Vânt Presiune Umiditate
    00:00 +5°C° 0 mm 2 m/s 682 mmHg 87%
    01:00 +6°C° 0 mm 2 m/s 682 mmHg 87%
    02:00 +5°C° 0.1 mm 2 m/s 682 mmHg 88%
    03:00 +5°C° 0.1 mm 2 m/s 681 mmHg 89%
    04:00 +5°C° 0.1 mm 2 m/s 681 mmHg 90%
    05:00 +5°C° 0.2 mm 2 m/s 682 mmHg 90%
    06:00 +5°C° 0.2 mm 2 m/s 682 mmHg 90%
    07:00 +5°C° 0.2 mm 2 m/s 682 mmHg 90%
    08:00 +7°C° 0.3 mm 2 m/s 683 mmHg 85%
    09:00 +8°C° 0.3 mm 2 m/s 683 mmHg 81%
    10:00 +9°C° 0.3 mm 3 m/s 684 mmHg 76%
    11:00 +9°C° 0.4 mm 2 m/s 684 mmHg 75%
    12:00 +10°C° 0.4 mm 2 m/s 683 mmHg 73%
    13:00 +10°C° 0.4 mm 2 m/s 683 mmHg 72%
    14:00 +9°C° 0.4 mm 2 m/s 683 mmHg 76%
    15:00 +10°C° 0.4 mm 1 m/s 683 mmHg 80%
    16:00 +9°C° 0.4 mm 1 m/s 683 mmHg 85%
    17:00 +9°C° 0.1 mm 1 m/s 683 mmHg 86%
    18:00 +8°C° 0.1 mm 1 m/s 683 mmHg 88%
    19:00 +8°C° 0.1 mm 1 m/s 683 mmHg 89%
    20:00 +7°C° 0.4 mm 1 m/s 683 mmHg 89%
    21:00 +7°C° 0.4 mm 1 m/s 683 mmHg 89%
    22:00 +7°C° 0.4 mm 1 m/s 684 mmHg 88%
    23:00 +7°C° 0.1 mm 1 m/s 684 mmHg 89%
    Arată mai mult